Tracking 19832 objects as of 26-Aug-2019
HD Live streaming from Space Station
objects crossing your sky now

FENGYUN 1C DEB

Track FENGYUN 1C DEB now!
10-day predictions


NORAD ID: 37929
Int'l Code: 1999-025EPE
Perigee: 556.8 km
Apogee: 794.9 km
Inclination: 99.0 °
Period: 98.1 minutes
Semi major axis: 7046 km
RCS: 0.0114 m2 (small)
Launch date: May 10, 1999
Source: People's Republic of China (PRC)
Launch site: Taiyaun Space Center, China (TSC)

Note: This is SATELLITE DEBRIS
aabbcc
Your satellite tracking list
Your tracking list is empty




NASA's NSSDC Master Catalog

Two Line Element Set (TLE):
1 37929U 99025EPE 19237.27677373  .00000575  00000-0  91778-4 0  9992
2 37929  99.0051 251.2291 0168974 178.2311 181.9525 14.67617086482300
Source of the keplerian elements: AFSPC